Regional Weather Roundup
Issued by NWS Little Rock, AR

Home | Current Version | Previous Version | Graphics & Text | Print | Product List | Glossary On
Versions: 1 2 3 4 5 6 7 8 9 10 11 12 13 14 15 16 17 18 19 20 21 22 23 24 25 26 27 28 29 30 31 32 33 34 35 36 37 38 39 40 41 42 43 44 45 46 47 48 49 50
734
ASUS44 KLZK 040005
RWRLZK

WEATHER ROUNDUP FOR ARKANSAS
NATIONAL WEATHER SERVICE LITTLE ROCK AR
700 PM CDT TUE MAY 03 2016

NOTE: "FAIR" INDICATES FEW OR NO CLOUDS BELOW 12,000 FEET WITH NO
SIGNIFICANT WEATHER AND/OR OBSTRUCTIONS TO VISIBILITY.

ARZ001-003-010-029-040100-
NORTHWEST ARKANSAS

CITY           SKY/WX    TMP DP  RH WIND       PRES   REMARKS
FAYETTEVILLE   SUNNY     63  43  48 NW9       30.01F
6HR MIN TEMP:  61; 6HR MAX TEMP:  67;

FORT SMITH     SUNNY     71  39  31 NW7       29.99F
6HR MIN TEMP:  65; 6HR MAX TEMP:  72;

HARRISON       SUNNY     63  38  39 NW7       30.00F
6HR MIN TEMP:  60; 6HR MAX TEMP:  67;

BENTONVILLE    SUNNY     64  39  39 N7        30.02S
6HR MIN TEMP:  63; 6HR MAX TEMP:  66;

ROGERS         SUNNY     64  41  42 NW8       30.02S
6HR MIN TEMP:  60; 6HR MAX TEMP:  66;

SILOAM SPGS    SUNNY     64  43  45 N8        30.02F
6HR MIN TEMP:  63; 6HR MAX TEMP:  66;

HIGHFILL       SUNNY     65  43  44 NW6       30.01F
6HR MIN TEMP:  62; 6HR MAX TEMP:  69;

SPRINGDALE     MOSUNNY   64  41  42 NW12      30.03F
$$

ARZ004-005-016-040100-
NORTH CENTRAL ARKANSAS

CITY           SKY/WX    TMP DP  RH WIND       PRES   REMARKS
BATESVILLE     CLEAR     66  43  42 CALM      29.97F
6HR MIN TEMP:  61; 6HR MAX TEMP:  70;

FLIPPIN        MOSUNNY  N/A N/A N/A NW6       29.96S
MTN HOME       SUNNY     63  40  42 NW3       29.97F
6HR MIN TEMP:  63; 6HR MAX TEMP:  68;

$$

ARZ040-041-040100-
WEST CENTRAL ARKANSAS

CITY           SKY/WX    TMP DP  RH WIND       PRES   REMARKS
MENA           SUNNY     68  43  40 NW5       30.01S
MOUNT IDA      SUNNY     68  44  42 CALM      29.98S
6HR MIN TEMP:  65; 6HR MAX TEMP:  72;

$$

ARZ009-017-025-026-028-040100-
NORTHEAST ARKANSAS

CITY           SKY/WX    TMP DP  RH WIND       PRES   REMARKS
CORNING          N/A     66  46  48 N3        29.95F
JONESBORO      CLEAR     66  46  48 W3        29.96S
6HR MIN TEMP:  62; 6HR MAX TEMP:  68;

NEWPORT        PTCLDY    67  44  43 NW8       29.98S
6HR MIN TEMP:  62; 6HR MAX TEMP:  69;

WALNUT RIDGE   CLEAR     66  41  39 NW10      29.95F
6HR MIN TEMP:  61; 6HR MAX TEMP:  68;

BLYTHEVILLE    MOCLDY    65  51  60 NW3       29.96S
6HR MIN TEMP:  62; 6HR MAX TEMP:  67;

$$

ARZ022-023-033-042-044-040100-
CENTRAL ARKANSAS

CITY           SKY/WX    TMP DP  RH WIND       PRES   REMARKS
LITTLE ROCK    MOSUNNY   68  42  38 NW7       29.98F
6HR MIN TEMP:  65; 6HR MAX TEMP:  72;

N LITTLE ROCK    N/A     64  47  53 CALM      29.97F
6HR MIN TEMP:  63; 6HR MAX TEMP:  69;

JACKSONVILLE   SUNNY     68  47  46 NW2       29.97F
6HR MIN TEMP:  65; 6HR MAX TEMP:  70;

SEARCY         MOCLDY    68  46  45 NW5       29.99S
6HR MIN TEMP:  63; 6HR MAX TEMP:  70;

HOT SPRINGS    SUNNY     68  44  42 CALM      29.99F
6HR MIN TEMP:  65; 6HR MAX TEMP:  71;

RUSSELLVILLE   PTSUNNY   69  41  36 W5        29.97F
6HR MIN TEMP:  63; 6HR MAX TEMP:  71;

$$

ARZ036-040100-
EAST ARKANSAS

CITY           SKY/WX    TMP DP  RH WIND       PRES   REMARKS
WEST MEMPHIS   CLEAR     63  51  65 N3        29.96F
6HR MIN TEMP:  60; 6HR MAX TEMP:  65;

$$

ARZ050-053-066-070-073-040100-
SOUTHWEST ARKANSAS

CITY           SKY/WX    TMP DP  RH WIND       PRES   REMARKS
ARKADELPHIA    FAIR      71  51  49 N7        30.00S
6HR MIN TEMP:  66; 6HR MAX TEMP:  71;

CAMDEN         LGT RAIN  68  46  45 NW3       29.99S
TEXARKANA      SUNNY     70  46  42 N3        30.00S
6HR MIN TEMP:  66; 6HR MAX TEMP:  72;

EL DORADO      SUNNY     68  48  48 N7        29.99F
6HR MIN TEMP:  66; 6HR MAX TEMP:  71;

DE QUEEN       MOSUNNY   70  45  40 NW5       29.99R
6HR MIN TEMP:  66; 6HR MAX TEMP:  73;

$$

ARZ056-057-069-040100-
SOUTHEAST ARKANSAS

CITY           SKY/WX    TMP DP  RH WIND       PRES   REMARKS
PINE BLUFF     CLEAR     66  46  48 N5        29.99S
6HR MIN TEMP:  63; 6HR MAX TEMP:  68;

STUTTGART      CLEAR     64  46  52 NW6       29.99S
6HR MIN TEMP:  63; 6HR MAX TEMP:  66;

MONTICELLO     CLEAR     68  49  50 NW3       29.98F
6HR MIN TEMP:  66; 6HR MAX TEMP:  71;


$$






USA.gov is the U.S. government's official web portal to all federal, state and local government web resources and services.